Back to catalog

STARLINK-11144

AliveCommunicationsVLEO
NORAD 59955·PAYLOAD·🇺🇸 United States

Launched Jun 5, 2024 from Cape Canaveral Space Force Station

Loading…

Next Passes (next 24 hours)

TLE

FreshSource: CelesTrak SupGP

Epoch: Sep 14, 2026, 20:59 UTC

1 59955C 24107L   26257.87479167  .00074762  00000+0  61577-3 0  2579
2 59955  53.1572  38.4576 0001014  74.3764 239.1743 15.69674960    11

Track STARLINK-11144 in real time with AllMySat

Download on the App Store